AKDT,Max TemperatureF,Mean TemperatureF,Min TemperatureF,Max Dew PointF,MeanDew PointF,Min DewpointF,Max Humidity, Mean Humidity, Min Humidity, Max Sea Level PressureIn, Mean Sea Level PressureIn, Min Sea Level PressureIn, Max VisibilityMiles, Mean VisibilityMiles, Min VisibilityMiles, Max Wind SpeedMPH, Mean Wind SpeedMPH, Max Gust SpeedMPH,PrecipitationIn, CloudCover, Events, WindDirDegrees
2012-9-1,60,52,44,48,44,39,93,76,48,30.01,29.98,29.94,10,10,4,15,5,22,0.00,5,,143
2012-9-2,57,54,51,48,47,45,88,80,63,30.18,30.12,29.99,10,9,2,7,3,,0.00,7,,342
2012-9-3,55,53,51,52,50,48,94,88,82,30.24,30.21,30.15,10,9,5,13,3,20,0.00,8,,111
2012-9-4,60,56,51,52,50,46,94,87,68,30.31,30.24,30.18,10,8,3,14,6,17,0.00,7,Rain,269
2012-9-5,57,52,46,50,47,45,94,83,67,30.34,30.31,30.27,10,9,1,7,1,,0.00,7,,345
2012-9-6,60,53,46,52,47,41,94,77,59,30.36,30.31,30.25,10,8,2,10,3,,0.00,5,,268
2012-9-7,57,50,42,48,44,37,93,77,63,30.37,30.28,30.12,10,10,4,13,4,16,0.00,4,,111
2012-9-8,62,56,51,54,52,48,94,84,68,30.13,29.85,29.57,10,7,2,17,7,28,0.00,8,,130
2012-9-9,53,50,46,46,45,43,93,82,67,29.71,29.57,29.49,10,9,5,22,7,28,0.00,8,,135
2012-9-10,51,48,46,46,44,43,93,84,76,30.07,29.90,29.71,10,10,7,9,3,,0.00,8,,99
2012-9-11,51,48,46,46,44,41,93,86,76,30.21,30.15,30.07,10,9,7,16,7,21,0.00,8,,112
2012-9-12,55,52,50,52,49,46,94,85,77,30.12,30.06,29.99,10,8,4,18,7,25,0.00,8,,122
2012-9-13,57,54,51,52,49,43,94,82,67,30.07,29.89,29.58,10,8,4,28,11,40,0.00,8,,125
2012-9-14,55,52,48,48,45,41,93,78,62,30.32,30.20,29.98,10,10,10,14,6,21,0.00,8,,142
2012-9-15,57,52,44,46,44,41,93,83,63,30.45,30.40,30.06,10,8,0,8,3,,0.00,5,Fog,131
2012-9-16,57,50,44,46,43,41,93,87,63,30.44,30.38,30.29,10,6,0,8,4,,0.00,2,,132
2012-9-17,51,46,42,48,45,39,94,90,82,30.29,30.20,30.15,10,6,0,12,5,17,0.00,8,,120
2012-9-18,53,48,44,46,44,39,93,86,72,30.31,30.26,30.22,10,9,0,7,3,,0.00,3,,307
2012-9-19,55,48,42,46,43,39,93,86,72,30.33,30.29,30.26,10,7,0,6,2,,0.00,6,Fog,60
2012-9-20,62,53,44,52,46,41,93,81,63,30.28,30.13,30.02,10,10,10,14,3,,0.00,0,,276
2012-9-21,64,56,48,54,49,45,94,85,68,30.08,30.05,30.02,10,8,0,7,2,,0.00,1,,128
2012-9-22,59,55,51,52,48,45,94,74,59,30.10,30.07,30.03,10,10,9,13,4,20,0.00,8,,145
2012-9-23,57,54,51,52,49,46,94,85,72,30.14,30.11,30.07,10,9,0,13,6,16,0.00,8,,72
2012-9-24,57,50,44,50,46,41,94,84,63,30.26,30.22,30.14,10,8,0,9,4,,0.00,5,,189
2012-9-25,53,48,44,46,43,39,93,84,67,30.26,30.13,30.01,10,8,0,20,7,28,0.00,6,,124
2012-9-26,57,52,48,50,46,43,88,80,67,30.04,29.87,29.57,10,10,8,22,11,31,0.00,8,,117
2012-9-27,55,52,48,50,46,43,93,82,71,29.83,29.71,29.49,10,10,6,23,14,38,0.00,7,,128
2012-9-28,53,50,48,46,45,43,87,82,71,29.95,29.89,29.82,10,10,5,15,8,21,0.00,7,,117
2012-9-29,50,48,46,45,43,41,87,85,76,30.15,30.04,29.95,10,9,6,13,6,17,0.00,8,,121
2012-9-30,48,46,44,45,43,39,93,86,76,30.20,30.09,29.81,10,9,4,10,5,,0.00,7,,88